| time (UTC) | temp F | wind direction | speed MPH | gust MPH | rain 1hr in | rain 24hr in | rain mn in | humidity % | barometer mb |
| 20260504231551 | 55 | 234 | 18.0 | 29.0 | 0.00 | 0.00 | 0.00 | 85 | 1011.5 |
| 20260504231051 | 55 | 180 | 19.0 | 29.0 | 0.00 | 0.00 | 0.00 | 85 | 1011.6 |
| 20260504230551 | 55 | 217 | 19.0 | 27.0 | 0.00 | 0.00 | 0.00 | 85 | 1011.5 |
| 20260504230050 | 55 | 200 | 17.0 | 28.0 | 0.00 | 0.00 | 0.00 | 85 | 1011.5 |
| 20260504225550 | 55 | 214 | 19.0 | 28.0 | 0.00 | 0.00 | 0.00 | 85 | 1011.4 |
| 20260504225049 | 55 | 217 | 16.0 | 25.0 | 0.00 | 0.00 | 0.00 | 85 | 1011.4 |
| 20260504224549 | 55 | 203 | 16.0 | 24.0 | 0.00 | 0.00 | 0.00 | 85 | 1011.5 |
| 20260504224050 | 55 | 198 | 14.0 | 23.0 | 0.00 | 0.00 | 0.00 | 85 | 1011.5 |
| 20260504223549 | 55 | 199 | 15.0 | 26.0 | 0.00 | 0.00 | 0.00 | 84 | 1011.5 |
| 20260504223054 | 55 | 202 | 14.0 | 30.0 | 0.00 | 0.00 | 0.00 | 85 | 1011.6 |
| 20260504222547 | 55 | 200 | 20.0 | 30.0 | 0.00 | 0.00 | 0.00 | 84 | 1011.7 |
| 20260504222052 | 55 | 191 | 17.0 | 25.0 | 0.00 | 0.00 | 0.00 | 84 | 1011.7 |
| 20260504221551 | 55 | 184 | 13.0 | 25.0 | 0.00 | 0.00 | 0.00 | 84 | 1011.8 |
| 20260504221046 | 55 | 222 | 15.0 | 22.0 | 0.00 | 0.00 | 0.00 | 84 | 1011.9 |
| 20260504220546 | 55 | 214 | 15.0 | 24.0 | 0.00 | 0.00 | 0.00 | 84 | 1011.8 |
| 20260504220104 | 55 | 186 | 16.0 | 27.0 | 0.00 | 0.00 | 0.00 | 84 | 1012.0 |
| 20260504215546 | 55 | 169 | 14.0 | 29.0 | 0.00 | 0.00 | 0.00 | 83 | 1012.0 |
| 20260504215044 | 55 | 178 | 17.0 | 29.0 | 0.00 | 0.00 | 0.00 | 83 | 1012.1 |
| 20260504214545 | 56 | 205 | 19.0 | 30.0 | 0.00 | 0.00 | 0.00 | 82 | 1012.0 |
| 20260504214044 | 56 | 191 | 20.0 | 28.0 | 0.00 | 0.00 | 0.00 | 82 | 1012.0 |
| 20260504213544 | 56 | 215 | 18.0 | 30.0 | 0.00 | 0.00 | 0.00 | 82 | 1012.0 |
| 20260504213048 | 56 | 190 | 19.0 | 29.0 | 0.00 | 0.00 | 0.00 | 81 | 1012.1 |
| 20260504212546 | 56 | 192 | 21.0 | 29.0 | 0.00 | 0.00 | 0.00 | 81 | 1012.0 |
| 20260504212044 | 56 | 198 | 18.0 | 28.0 | 0.00 | 0.00 | 0.00 | 80 | 1012.0 |
| 20260504211542 | 56 | 213 | 18.0 | 28.0 | 0.00 | 0.00 | 0.00 | 80 | 1012.0 |
| 20260504211042 | 56 | 203 | 17.0 | 26.0 | 0.00 | 0.00 | 0.00 | 80 | 1011.9 |
| 20260504210542 | 56 | 201 | 15.0 | 26.0 | 0.00 | 0.00 | 0.00 | 79 | 1011.9 |
| 20260504210043 | 56 | 172 | 16.0 | 27.0 | 0.00 | 0.00 | 0.00 | 80 | 1011.8 |
| 20260504205543 | 57 | 206 | 15.0 | 28.0 | 0.00 | 0.00 | 0.00 | 79 | 1011.9 |
| 20260504205041 | 57 | 168 | 19.0 | 31.0 | 0.00 | 0.00 | 0.00 | 79 | 1011.9 |
| 20260504204557 | 57 | 194 | 20.0 | 31.0 | 0.00 | 0.00 | 0.00 | 78 | 1011.8 |
| 20260504204041 | 57 | 210 | 19.0 | 28.0 | 0.00 | 0.00 | 0.00 | 78 | 1011.8 |
| 20260504203541 | 57 | 199 | 19.0 | 28.0 | 0.00 | 0.00 | 0.00 | 78 | 1011.9 |
| 20260504203042 | 57 | 186 | 21.0 | 31.0 | 0.00 | 0.00 | 0.00 | 79 | 1011.9 |
| 20260504202540 | 56 | 196 | 21.0 | 31.0 | 0.00 | 0.00 | 0.00 | 79 | 1011.9 |
| 20260504202042 | 57 | 204 | 19.0 | 28.0 | 0.00 | 0.00 | 0.00 | 79 | 1012.0 |
| 20260504201539 | 57 | 193 | 19.0 | 31.0 | 0.00 | 0.00 | 0.00 | 79 | 1012.0 |
| 20260504201040 | 57 | 196 | 22.0 | 33.0 | 0.00 | 0.00 | 0.00 | 79 | 1012.1 |
| 20260504200541 | 57 | 189 | 20.0 | 33.0 | 0.00 | 0.00 | 0.00 | 79 | 1012.1 |
| 20260504200044 | 57 | 186 | 22.0 | 33.0 | 0.00 | 0.00 | 0.00 | 78 | 1012.1 |
| 20260504195539 | 57 | 174 | 19.0 | 32.0 | 0.00 | 0.00 | 0.00 | 78 | 1012.2 |
| 20260504195037 | 57 | 190 | 16.0 | 29.0 | 0.00 | 0.00 | 0.00 | 78 | 1012.1 |
| 20260504194541 | 57 | 182 | 21.0 | 35.0 | 0.00 | 0.00 | 0.00 | 79 | 1012.2 |
| 20260504194040 | 57 | 205 | 20.0 | 35.0 | 0.00 | 0.00 | 0.00 | 79 | 1012.3 |
| 20260504193536 | 57 | 185 | 20.0 | 31.0 | 0.00 | 0.00 | 0.00 | 78 | 1012.3 |
| 20260504193037 | 57 | 148 | 18.0 | 28.0 | 0.00 | 0.00 | 0.00 | 78 | 1012.4 |
| 20260504192535 | 57 | 215 | 18.0 | 30.0 | 0.00 | 0.00 | 0.00 | 77 | 1012.5 |
| 20260504192035 | 57 | 192 | 22.0 | 31.0 | 0.00 | 0.00 | 0.00 | 78 | 1012.5 |
| 20260504191539 | 57 | 195 | 18.0 | 31.0 | 0.00 | 0.00 | 0.00 | 78 | 1012.6 |
| 20260504191036 | 57 | 180 | 18.0 | 33.0 | 0.00 | 0.00 | 0.00 | 78 | 1012.6 |
| 20260504190534 | 57 | 199 | 24.0 | 33.0 | 0.00 | 0.00 | 0.00 | 77 | 1012.6 |
| 20260504190037 | 57 | 196 | 22.0 | 33.0 | 0.00 | 0.00 | 0.00 | 77 | 1013.0 |
| 20260504185533 | 57 | 174 | 18.0 | 29.0 | 0.00 | 0.00 | 0.00 | 78 | 1012.8 |
| 20260504185032 | 57 | 211 | 19.0 | 29.0 | 0.00 | 0.00 | 0.00 | 77 | 1012.8 |
| 20260504184535 | 57 | 202 | 20.0 | 29.0 | 0.00 | 0.00 | 0.00 | 77 | 1012.9 |
| 20260504184031 | 57 | 178 | 19.0 | 31.0 | 0.00 | 0.00 | 0.00 | 78 | 1013.0 |
| 20260504183531 | 57 | 182 | 19.0 | 28.0 | 0.00 | 0.00 | 0.00 | 78 | 1013.0 |
| 20260504183033 | 57 | 179 | 17.0 | 29.0 | 0.00 | 0.00 | 0.00 | 78 | 1012.9 |
| 20260504182529 | 57 | 207 | 18.0 | 29.0 | 0.00 | 0.00 | 0.00 | 78 | 1013.0 |
| 20260504182029 | 57 | 201 | 18.0 | 29.0 | 0.00 | 0.00 | 0.00 | 77 | 1013.2 |
| 20260504181529 | 57 | 207 | 16.0 | 24.0 | 0.00 | 0.00 | 0.00 | 78 | 1013.1 |
| 20260504181031 | 57 | 203 | 15.0 | 23.0 | 0.00 | 0.00 | 0.00 | 78 | 1013.3 |
| 20260504180531 | 57 | 238 | 15.0 | 25.0 | 0.00 | 0.00 | 0.00 | 78 | 1013.3 |
| 20260504180029 | 57 | 219 | 16.0 | 26.0 | 0.00 | 0.00 | 0.00 | 78 | 1013.3 |
| 20260504175528 | 57 | 205 | 20.0 | 30.0 | 0.00 | 0.00 | 0.00 | 79 | 1013.3 |
| 20260504175031 | 56 | 201 | 21.0 | 26.0 | 0.00 | 0.00 | 0.00 | 78 | 1013.3 |
| 20260504174527 | 56 | 200 | 18.0 | 25.0 | 0.00 | 0.00 | 0.00 | 79 | 1013.3 |
| 20260504174026 | 56 | 184 | 18.0 | 25.0 | 0.00 | 0.00 | 0.00 | 79 | 1013.4 |
| 20260504173525 | 56 | 202 | 17.0 | 29.0 | 0.00 | 0.00 | 0.00 | 79 | 1013.5 |
| 20260504173026 | 56 | 198 | 20.0 | 29.0 | 0.00 | 0.00 | 0.00 | 79 | 1013.5 |
| 20260504172624 | 56 | 202 | 19.0 | 27.0 | 0.00 | 0.00 | 0.00 | 80 | 1013.5 |
| 20260504172024 | 56 | 199 | 18.0 | 29.0 | 0.00 | 0.00 | 0.00 | 80 | 1013.6 |
| 20260504171524 | 56 | 192 | 18.0 | 29.0 | 0.00 | 0.00 | 0.00 | 79 | 1013.6 |
| 20260504171023 | 56 | 199 | 15.0 | 29.0 | 0.00 | 0.00 | 0.00 | 79 | 1013.7 |
| 20260504170522 | 56 | 190 | 15.0 | 22.0 | 0.00 | 0.00 | 0.00 | 78 | 1013.8 |
| 20260504151015 | 59 | 230 | 8.0 | 14.0 | 0.00 | 0.00 | 0.00 | 67 | 1015.3 |
| 20260504150514 | 59 | 286 | 6.0 | 14.0 | 0.00 | 0.00 | 0.00 | 66 | 1015.2 |
| 20260504141010 | 58 | 260 | 8.0 | 17.0 | 0.00 | 0.00 | 0.00 | 64 | 1015.3 |
| 20260504140510 | 58 | 219 | 8.0 | 19.0 | 0.00 | 0.00 | 0.00 | 62 | 1015.3 |
| 20260504130502 | 56 | 229 | 9.0 | 18.0 | 0.00 | 0.00 | 0.00 | 65 | 1015.9 |
| 20260504110544 | 52 | 249 | 9.0 | 19.0 | 0.00 | 0.00 | 0.00 | 67 | 1016.2 |
| 20260504100537 | 50 | 231 | 4.0 | 9.0 | 0.00 | 0.00 | 0.00 | 74 | 1016.3 |
| 20260504081537 | 51 | 360 | 5.0 | 11.0 | 0.00 | 0.00 | 0.00 | 62 | 1015.7 |
| 20260504081021 | 51 | 360 | 5.0 | 11.0 | 0.00 | 0.00 | 0.00 | 61 | 1015.6 |
| 20260504080521 | 51 | 360 | 5.0 | 10.0 | 0.00 | 0.00 | 0.00 | 61 | 1015.5 |
| 20260504050557 | 53 | 246 | 8.0 | 14.0 | 0.00 | 0.00 | 0.00 | 64 | 1014.7 |
| 20260504045556 | 53 | 246 | 7.0 | 12.0 | 0.00 | 0.00 | 0.00 | 63 | 1014.7 |
| 20260504045054 | 53 | 244 | 7.0 | 13.0 | 0.00 | 0.00 | 0.00 | 63 | 1014.7 |
| 20260504044554 | 53 | 248 | 8.0 | 13.0 | 0.00 | 0.00 | 0.00 | 62 | 1014.5 |
| 20260504044054 | 53 | 244 | 7.0 | 12.0 | 0.00 | 0.00 | 0.00 | 62 | 1014.6 |
| 20260504043553 | 53 | 244 | 7.0 | 15.0 | 0.00 | 0.00 | 0.00 | 62 | 1014.5 |
| 20260504043057 | 52 | 243 | 8.0 | 15.0 | 0.00 | 0.00 | 0.00 | 62 | 1014.6 |
| 20260504042551 | 53 | 243 | 7.0 | 11.0 | 0.00 | 0.00 | 0.00 | 62 | 1014.6 |
| 20260504042052 | 53 | 243 | 6.0 | 14.0 | 0.00 | 0.00 | 0.00 | 61 | 1014.5 |
| 20260504041550 | 53 | 242 | 9.0 | 14.0 | 0.00 | 0.00 | 0.00 | 60 | 1014.5 |
| 20260504041053 | 53 | 246 | 7.0 | 13.0 | 0.00 | 0.00 | 0.00 | 60 | 1014.4 |
| 20260504040547 | 53 | 244 | 7.0 | 13.0 | 0.00 | 0.00 | 0.00 | 59 | 1014.4 |
| 20260504040047 | 53 | 246 | 7.0 | 13.0 | 0.00 | 0.00 | 0.00 | 59 | 1014.3 |
| 20260504035547 | 53 | 247 | 7.0 | 13.0 | 0.00 | 0.00 | 0.00 | 59 | 1014.1 |
| 20260504035047 | 53 | 246 | 8.0 | 12.0 | 0.00 | 0.00 | 0.00 | 60 | 1014.3 |
| 20260504034548 | 53 | 246 | 6.0 | 11.0 | 0.00 | 0.00 | 0.00 | 61 | 1014.3 |
| 20260504034045 | 53 | 360 | 4.0 | 11.0 | 0.00 | 0.00 | 0.00 | 65 | 1014.3 |
| 20260504033548 | 53 | 360 | 6.0 | 11.0 | 0.00 | 0.00 | 0.00 | 60 | 1014.3 |
| 20260504033046 | 53 | 360 | 6.0 | 12.0 | 0.00 | 0.00 | 0.00 | 60 | 1014.3 |
| 20260504032545 | 53 | 360 | 9.0 | 12.0 | 0.00 | 0.00 | 0.00 | 60 | 1014.4 |
| 20260504032048 | 53 | 360 | 6.0 | 11.0 | 0.00 | 0.00 | 0.00 | 60 | 1014.3 |
| 20260504031545 | 53 | 360 | 6.0 | 9.0 | 0.00 | 0.00 | 0.00 | 60 | 1014.4 |
| 20260504031044 | 53 | 259 | 6.0 | 11.0 | 0.00 | 0.00 | 0.00 | 59 | 1014.4 |
| 20260504030543 | 53 | 259 | 6.0 | 11.0 | 0.00 | 0.00 | 0.00 | 58 | 1014.4 |
| 20260504030044 | 54 | 257 | 5.0 | 13.0 | 0.00 | 0.00 | 0.00 | 57 | 1014.3 |
| 20260504025544 | 54 | 258 | 5.0 | 11.0 | 0.00 | 0.00 | 0.00 | 58 | 1014.2 |
| 20260504025044 | 54 | 258 | 6.0 | 10.0 | 0.00 | 0.00 | 0.00 | 58 | 1014.2 |
| 20260504024545 | 54 | 258 | 6.0 | 12.0 | 0.00 | 0.00 | 0.00 | 58 | 1014.3 |
| 20260504024044 | 54 | 258 | 7.0 | 12.0 | 0.00 | 0.00 | 0.00 | 58 | 1014.3 |
| 20260504023543 | 54 | 259 | 7.0 | 10.0 | 0.00 | 0.00 | 0.00 | 57 | 1014.2 |
| 20260504023041 | 54 | 259 | 7.0 | 10.0 | 0.00 | 0.00 | 0.00 | 56 | 1014.3 |
| 20260504022542 | 54 | 260 | 7.0 | 10.0 | 0.00 | 0.00 | 0.00 | 55 | 1014.2 |
| 20260504022041 | 54 | 261 | 6.0 | 10.0 | 0.00 | 0.00 | 0.00 | 56 | 1014.2 |
| 20260504021541 | 54 | 261 | 6.0 | 10.0 | 0.00 | 0.00 | 0.00 | 57 | 1014.2 |
| 20260504021042 | 54 | 262 | 6.0 | 10.0 | 0.00 | 0.00 | 0.00 | 57 | 1014.2 |
| 20260504020540 | 54 | 263 | 6.0 | 11.0 | 0.00 | 0.00 | 0.00 | 57 | 1014.1 |
| 20260504020115 | 54 | 267 | 6.0 | 11.0 | 0.00 | 0.00 | 0.00 | 58 | 1014.2 |
| 20260504015540 | 54 | 274 | 6.0 | 9.0 | 0.00 | 0.00 | 0.00 | 63 | 1014.2 |
| 20260504015039 | 54 | 281 | 5.0 | 7.0 | 0.00 | 0.00 | 0.00 | 60 | 1014.1 |
| 20260504014553 | 55 | 283 | 2.0 | 8.0 | 0.00 | 0.00 | 0.00 | 53 | 1014.1 |
| 20260504014037 | 55 | 283 | 3.0 | 8.0 | 0.00 | 0.00 | 0.00 | 52 | 1014.1 |
| 20260504013536 | 54 | 284 | 5.0 | 8.0 | 0.00 | 0.00 | 0.00 | 52 | 1014.0 |
| 20260504013045 | 55 | 286 | 2.0 | 5.0 | 0.00 | 0.00 | 0.00 | 52 | 1014.0 |
| 20260504012538 | 55 | 286 | 2.0 | 6.0 | 0.00 | 0.00 | 0.00 | 49 | 1014.0 |
| 20260504012035 | 55 | 286 | 3.0 | 5.0 | 0.00 | 0.00 | 0.00 | 48 | 1013.9 |
| 20260504011535 | 55 | 286 | 2.0 | 5.0 | 0.00 | 0.00 | 0.00 | 47 | 1013.8 |
| 20260504011035 | 55 | 286 | 3.0 | 7.0 | 0.00 | 0.00 | 0.00 | 46 | 1013.7 |
| 20260504010535 | 55 | 286 | 3.0 | 7.0 | 0.00 | 0.00 | 0.00 | 46 | 1013.6 |
| 20260504010037 | 55 | 294 | 4.0 | 7.0 | 0.00 | 0.00 | 0.00 | 47 | 1013.6 |
| 20260504005533 | 55 | 298 | 3.0 | 5.0 | 0.00 | 0.00 | 0.00 | 47 | 1013.5 |
| 20260504005032 | 56 | 298 | 2.0 | 4.0 | 0.00 | 0.00 | 0.00 | 39 | 1013.4 |
| 20260504004539 | 56 | 298 | 1.0 | 4.0 | 0.00 | 0.00 | 0.00 | 36 | 1013.4 |
| 20260504004032 | 56 | 298 | 2.0 | 4.0 | 0.00 | 0.00 | 0.00 | 36 | 1013.3 |
| 20260504003532 | 56 | 298 | 0.0 | 4.0 | 0.00 | 0.00 | 0.00 | 36 | 1013.3 |
| 20260504003031 | 57 | 360 | 1.0 | 4.0 | 0.00 | 0.00 | 0.00 | 36 | 1013.2 |
| 20260504002532 | 57 | 298 | 1.0 | 7.0 | 0.00 | 0.00 | 0.00 | 35 | 1013.1 |
| 20260504002032 | 57 | 298 | 2.0 | 7.0 | 0.00 | 0.00 | 0.00 | 34 | 1013.1 |
| 20260504001541 | 57 | 298 | 2.0 | 6.0 | 0.00 | 0.00 | 0.00 | 34 | 1012.9 |
| 20260504001033 | 58 | 300 | 3.0 | 6.0 | 0.00 | 0.00 | 0.00 | 34 | 1012.9 |
| 20260504000534 | 58 | 302 | 2.0 | 9.0 | 0.00 | 0.00 | 0.00 | 35 | 1012.9 |
| 20260504000032 | 58 | 301 | 3.0 | 9.0 | 0.00 | 0.00 | 0.00 | 34 | 1012.7 |
| 20260503235531 | 58 | 302 | 5.0 | 12.0 | 0.00 | 0.00 | 0.00 | 32 | 1012.7 |
| 20260503235031 | 58 | 302 | 6.0 | 12.0 | 0.00 | 0.00 | 0.00 | 31 | 1012.6 |
| 20260503234530 | 59 | 269 | 6.0 | 15.0 | 0.00 | 0.00 | 0.00 | 32 | 1012.5 |
| 20260503234031 | 59 | 305 | 7.0 | 17.0 | 0.00 | 0.00 | 0.00 | 32 | 1012.5 |
| 20260503233530 | 59 | 311 | 10.0 | 17.0 | 0.00 | 0.00 | 0.00 | 31 | 1012.3 |
| 20260503233035 | 59 | 321 | 8.0 | 12.0 | 0.00 | 0.00 | 0.00 | 31 | 1012.3 |
| 20260503232530 | 59 | 295 | 6.0 | 11.0 | 0.00 | 0.00 | 0.00 | 31 | 1012.3 |
| 20260503232030 | 59 | 281 | 7.0 | 13.0 | 0.00 | 0.00 | 0.00 | 32 | 1012.2 |